Hourly Data Report for October 09, 2019

All times are specified in Local Standard Time (LST). Add 1 hour to adjust for Daylight Saving Time where and when it is observed.

SEPT-ILES
QUEBEC
Current Station Operator: ECCC - MSC

50°13'00.000" N
66°15'00.000" W
52.60 m
7047914
71279
XZV

Download Data

Hourly Data (October 2019)
Hourly Data Report for October 9, 2019
TIME Temp Definition
°C
Dew Point Definition
°C
Rel Hum Definition
%
Wind Dir Definition
10's deg

Wind Spd Definition
km/h
Visibility Definition
km
Stn Press Definition
kPa
Hmdx Definition


Wind Chill Definition


Weather Definition


00:00 5.3 0.1 69 28 8   102.03     LegendNANA
01:00 3.9 -0.3 74 29 9   102.08     LegendNANA
02:00 3.5 -0.8 73 29 6   102.16     LegendNANA
03:00 -0.1 -2.1 87 27 5   102.20   -2 LegendNANA
04:00 -0.8 -3.3 83 30 4   102.24   -2 LegendNANA
05:00 -0.3 -1.9 89 28 4   102.30   -2 LegendNANA
06:00 1.0 -0.6 89 29 7   102.36     LegendNANA
07:00 4.1 0.8 79 29 5   102.43     LegendNANA
08:00 6.5 1.6 71 30 9   102.45     LegendNANA
09:00 8.8 1.1 59 28 10   102.48     LegendNANA
10:00 10.1 0.7 52 29 9   102.46     LegendNANA
11:00 10.1 1.7 56 22 10   102.44     LegendNANA
12:00 10.6 2.2 56 23 7   102.38     LegendNANA
13:00 10.9 2.9 58 23 8   102.36     LegendNANA
14:00 9.8 3.1 63 25 12   102.33     LegendNANA
15:00 9.4 2.8 63 25 13   102.29     LegendNANA
16:00 8.3 3.9 74 25 9   102.30     LegendNANA
17:00 7.1 3.8 80 22 4   102.32     LegendNANA
18:00 2.4 -0.1 84 34 1   102.35     LegendNANA
19:00 1.0 -0.6 89 7 2   102.36     LegendNANA
20:00 -0.5 -1.8 91 1 1   102.38   -1 LegendNANA
21:00 -1.5 -3.0 90   0   102.44     LegendNANA
22:00 -1.7 -3.0 91 5 3   102.46   -3 LegendNANA
23:00 -1.3 -2.3 93 34 5   102.45   -3 LegendNANA

Notes on Data Quality.

Legend

  • E = Estimated
  • M = Missing
  • NA = Not Available
Date modified: